TimeMST,TemperatureF,Dew PointF,Humidity,Sea Level PressureIn,VisibilityMPH,Wind Direction,Wind SpeedMPH,Gust SpeedMPH,PrecipitationIn,Events,Conditions,WindDirDegrees,DateUTC
12:58 AM,86.4,21.0,9,29.70,10.0,SW,8.1,-,N/A,,Clear,220,2013-06-21 07:58:00
1:58 AM,83.3,23.2,11,29.70,10.0,SSW,6.9,-,N/A,,Clear,210,2013-06-21 08:58:00
2:58 AM,81.5,27.3,14,29.71,10.0,SW,4.6,-,N/A,,Clear,220,2013-06-21 09:58:00
3:58 AM,79.7,28.8,16,29.72,10.0,South,3.5,-,N/A,,Clear,190,2013-06-21 10:58:00
4:58 AM,79.0,31.8,18,29.74,10.0,NNE,3.5,-,N/A,,Clear,20,2013-06-21 11:58:00
5:58 AM,72.5,36.0,26,29.76,10.0,NW,1.2,-,N/A,,Clear,310,2013-06-21 12:58:00
6:58 AM,77.0,37.8,24,29.77,10.0,NNE,3.5,-,N/A,,Clear,30,2013-06-21 13:58:00
7:58 AM,84.7,32.7,15,29.78,10.0,NNE,1.2,-,N/A,,Clear,20,2013-06-21 14:58:00
8:58 AM,89.1,33.1,14,29.79,10.0,Calm,Calm,-,N/A,,Clear,0,2013-06-21 15:58:00
9:58 AM,91.8,30.7,11,29.80,10.0,Calm,Calm,-,N/A,,Clear,0,2013-06-21 16:58:00
10:58 AM,94.6,29.1,10,29.79,10.0,SSW,5.8,-,N/A,,Partly Cloudy,200,2013-06-21 17:58:00
11:58 AM,96.3,26.6,8,29.77,10.0,South,8.1,-,N/A,,Partly Cloudy,180,2013-06-21 18:58:00
12:58 PM,97.7,27.7,8,29.75,10.0,Variable,5.8,-,N/A,,Mostly Cloudy,0,2013-06-21 19:58:00
1:58 PM,98.4,28.0,8,29.75,10.0,Variable,3.5,-,N/A,,Partly Cloudy,0,2013-06-21 20:58:00
2:58 PM,100.9,26.8,7,29.72,10.0,Variable,4.6,-,N/A,,Clear,0,2013-06-21 21:58:00
3:58 PM,102.9,28.4,7,29.69,10.0,SSW,12.7,-,N/A,,Clear,200,2013-06-21 22:58:00
4:58 PM,104.0,29.1,7,29.66,10.0,SSW,13.8,-,N/A,,Clear,210,2013-06-21 23:58:00
5:58 PM,104.0,25.3,6,29.65,10.0,SW,18.4,-,N/A,,Clear,220,2013-06-22 00:58:00
6:58 PM,101.1,22.3,6,29.65,10.0,SW,11.5,-,N/A,,Clear,230,2013-06-22 01:58:00
7:58 PM,96.1,23.2,7,29.66,10.0,SW,5.8,-,N/A,,Clear,220,2013-06-22 02:58:00
8:58 PM,90.7,30.0,11,29.67,10.0,WSW,8.1,-,N/A,,Clear,240,2013-06-22 03:58:00
9:58 PM,88.0,33.6,14,29.68,10.0,WSW,8.1,-,N/A,,Clear,240,2013-06-22 04:58:00
10:58 PM,86.7,36.0,16,29.69,10.0,SSW,5.8,-,N/A,,Clear,200,2013-06-22 05:58:00
11:58 PM,86.2,33.3,15,29.69,10.0,SW,12.7,-,N/A,,Clear,230,2013-06-22 06:58:00